Regional Weather Roundup
Issued by NWS

Home | Current Version | Previous Version | Text Only | Print | Product List | Glossary On
Versions: 1 2 3 4 5 6 7 8 9 10 11 12 13 14 15 16 17 18 19 20 21 22 23 24 25 26 27 28 29 30 31 32 33 34 35 36 37 38 39 40 41 42 43 44 45 46 47 48 49 50
000
ASUS43 KFSD 261510
RWRSD

WEATHER ROUNDUP FOR SOUTH DAKOTA
NATIONAL WEATHER SERVICE SIOUX FALLS SD
900 AM CST MON JAN 26 2015

NOTE: "FAIR" INDICATES FEW OR NO CLOUDS BELOW 12,000 FEET WITH NO
SIGNIFICANT WEATHER AND/OR OBSTRUCTIONS TO VISIBILITY.


SDZ001>005-009-010-012>017-261600-
NORTHWEST AND NORTH CENTRAL SOUTH DAKOTA

CITY           SKY/WX    TMP DP  RH WIND       PRES   REMARKS
BUFFALO          N/A     39  30  70 W8        29.93R
FAITH            N/A     39  29  67 NW16      29.96R
MOBRIDGE       CLEAR     38  34  85 NW10      29.89R
$$

SDZ012>016-024>037-041>051-057-063-072>074-261600-
SOUTHWEST AND SOUTH CENTRAL SOUTH DAKOTA

CITY           SKY/WX    TMP DP  RH WIND       PRES   REMARKS
RAPID CTY ARPT CLEAR     47  28  47 SW3       30.04R
PIERRE         PTCLDY    40  33  76 W12       29.94R
CUSTER         CLEAR     44  25  47 W5        30.11R
ELLSWORTH AFB  CLEAR     52  29  42 NW17      30.03R
PHILIP         CLEAR     40  30  67 W8        30.00R
PINE RIDGE     CLEAR     39  29  67 W7        30.08R
SPEARFISH      FAIR      54  28  37 W15       30.07S
WINNER         FAIR      42  32  67 W9        29.95S
$$

SDZ004>011-016>023-039-040-261600-
NORTHEAST SOUTH DAKOTA

CITY           SKY/WX    TMP DP  RH WIND       PRES   REMARKS
ABERDEEN       CLEAR     34  30  85 W7        29.86R WCI  28
WATERTOWN      CLEAR     35  30  82 NW10      29.80R WCI  27
SISSETON         N/A     39  33  79 NW16      29.76R
$$

SDZ017-020-022-023-036>040-048>070-261600-
SOUTHEAST SOUTH DAKOTA

CITY           SKY/WX    TMP DP  RH WIND       PRES   REMARKS
SIOUX FALLS    MOSUNNY   37  33  85 NW16      29.83R
HURON          PTCLDY    38  34  85 W13       29.87R
CHAMBERLAIN    MOCLDY    42  34  72 NW13      29.93R
MITCHELL       PTCLDY    38  33  82 W14       29.90R
YANKTON        SUNNY     39  34  81 NW14      29.89R
$$

ABBREVIATIONS USED IN REMARKS
   TC - TEMPERATURE IN CELSIUS
  WCI - WIND CHILL INDEX
   HX - HEAT INDEX
  VSB - VISIBILITY



USA.gov is the U.S. government's official web portal to all federal, state and local government web resources and services.